Time,TemperatureF,DewpointF,PressureIn,WindDirection,WindDirectionDegrees,WindSpeedMPH,WindSpeedGustMPH,Humidity,HourlyPrecipIn,Conditions,Clouds,dailyrainin,SoftwareType,DateUTC
2013-09-24 00:02:00,60.8,55.9,30.24,SE,135,0.0,1.6,84,0.00,,,0.00,meteobridge,2013-09-24 06:02:00,
2013-09-24 00:09:00,61.0,56.5,30.23,SE,135,1.6,2.2,85,0.00,,,0.00,meteobridge,2013-09-24 06:09:00,
2013-09-24 00:15:00,61.2,56.7,30.22,SE,135,1.6,1.6,85,0.00,,,0.00,meteobridge,2013-09-24 06:15:00,
2013-09-24 00:21:00,61.5,57.0,30.22,East,90,3.1,3.1,85,0.00,,,0.00,meteobridge,2013-09-24 06:21:00,
2013-09-24 00:28:00,61.3,56.8,30.22,NE,45,3.8,5.4,85,0.00,,,0.00,meteobridge,2013-09-24 06:28:00,
2013-09-24 00:34:00,61.5,56.7,30.22,SE,135,3.8,3.8,84,0.00,,,0.00,meteobridge,2013-09-24 06:34:00,
2013-09-24 00:40:00,61.5,56.3,30.22,East,90,1.6,4.5,83,0.00,,,0.00,meteobridge,2013-09-24 06:40:00,
2013-09-24 00:47:00,61.0,55.4,30.22,East,90,1.6,1.6,82,0.00,,,0.00,meteobridge,2013-09-24 06:47:00,
2013-09-24 00:53:00,60.8,55.6,30.23,East,90,3.8,3.8,83,0.00,,,0.00,meteobridge,2013-09-24 06:53:00,
2013-09-24 00:59:00,61.0,56.1,30.23,SE,135,3.1,4.5,84,0.00,,,0.00,meteobridge,2013-09-24 06:59:00,
2013-09-24 01:06:00,61.2,56.3,30.23,SE,135,1.6,2.2,84,0.00,,,0.00,meteobridge,2013-09-24 07:06:00,
2013-09-24 01:12:00,61.9,57.4,30.23,East,90,0.0,1.6,85,0.00,,,0.00,meteobridge,2013-09-24 07:12:00,
2013-09-24 01:18:00,62.1,57.6,30.22,East,90,0.0,1.6,85,0.00,,,0.00,meteobridge,2013-09-24 07:18:00,
2013-09-24 01:25:00,62.4,58.1,30.22,East,90,3.1,3.1,86,0.00,,,0.00,meteobridge,2013-09-24 07:25:00,
2013-09-24 01:31:00,62.1,57.6,30.22,NE,45,3.1,3.1,85,0.00,,,0.00,meteobridge,2013-09-24 07:31:00,
2013-09-24 01:37:00,62.1,57.6,30.22,NE,45,0.0,0.0,85,0.00,,,0.00,meteobridge,2013-09-24 07:37:00,
2013-09-24 01:44:00,61.7,56.8,30.22,South,180,3.8,3.8,84,0.00,,,0.00,meteobridge,2013-09-24 07:44:00,
2013-09-24 01:50:00,62.1,57.2,30.22,East,90,3.8,3.8,84,0.00,,,0.00,meteobridge,2013-09-24 07:50:00,
2013-09-24 01:56:00,62.6,57.4,30.22,SE,135,4.5,6.0,83,0.00,,,0.00,meteobridge,2013-09-24 07:56:00,
2013-09-24 02:03:00,63.1,57.9,30.22,East,90,6.0,9.2,83,0.00,,,0.00,meteobridge,2013-09-24 08:03:00,
2013-09-24 02:09:00,63.1,57.9,30.22,South,180,2.2,3.1,83,0.00,,,0.00,meteobridge,2013-09-24 08:09:00,
2013-09-24 02:15:00,63.5,57.9,30.21,SW,225,3.8,6.9,82,0.00,,,0.00,meteobridge,2013-09-24 08:15:00,
2013-09-24 02:22:00,63.0,57.4,30.21,East,90,6.9,6.9,82,0.00,,,0.00,meteobridge,2013-09-24 08:22:00,
2013-09-24 02:28:00,62.2,56.7,30.21,SE,135,0.7,0.7,82,0.00,,,0.00,meteobridge,2013-09-24 08:28:00,
2013-09-24 02:34:00,61.9,56.3,30.21,East,90,1.6,1.6,82,0.00,,,0.00,meteobridge,2013-09-24 08:34:00,
2013-09-24 02:41:00,61.3,56.1,30.21,East,90,3.1,3.1,83,0.00,,,0.00,meteobridge,2013-09-24 08:41:00,
2013-09-24 02:47:00,61.5,56.3,30.22,SE,135,3.8,3.8,83,0.00,,,0.00,meteobridge,2013-09-24 08:47:00,
2013-09-24 02:53:00,61.0,55.8,30.22,SE,135,2.2,2.2,83,0.00,,,0.00,meteobridge,2013-09-24 08:53:00,
2013-09-24 03:00:00,60.6,55.8,30.22,NE,45,3.8,3.8,84,0.00,,,0.00,meteobridge,2013-09-24 09:00:00,
2013-09-24 03:06:00,61.0,56.1,30.22,SE,135,2.2,4.5,84,0.00,,,0.00,meteobridge,2013-09-24 09:06:00,
2013-09-24 03:13:00,60.8,55.9,30.22,East,90,4.5,6.0,84,0.00,,,0.00,meteobridge,2013-09-24 09:13:00,
2013-09-24 03:19:00,60.8,55.6,30.22,NE,45,3.8,4.5,83,0.00,,,0.00,meteobridge,2013-09-24 09:19:00,
2013-09-24 03:25:00,61.2,55.9,30.21,SE,135,5.4,5.4,83,0.00,,,0.00,meteobridge,2013-09-24 09:25:00,
2013-09-24 03:32:00,60.8,55.2,30.21,SE,135,2.2,2.2,82,0.00,,,0.00,meteobridge,2013-09-24 09:32:00,
2013-09-24 03:38:00,60.6,55.4,30.21,East,90,3.8,5.4,83,0.00,,,0.00,meteobridge,2013-09-24 09:38:00,
2013-09-24 03:44:00,60.4,55.2,30.21,East,90,3.1,3.1,83,0.00,,,0.00,meteobridge,2013-09-24 09:44:00,
2013-09-24 03:51:00,60.4,55.6,30.21,East,90,2.2,3.1,84,0.00,,,0.00,meteobridge,2013-09-24 09:51:00,
2013-09-24 03:57:00,60.3,55.4,30.21,SE,135,5.4,5.4,84,0.00,,,0.00,meteobridge,2013-09-24 09:57:00,
2013-09-24 04:03:00,60.4,55.6,30.21,SE,135,2.2,3.1,84,0.00,,,0.00,meteobridge,2013-09-24 10:03:00,
2013-09-24 04:10:00,61.7,56.5,30.21,East,90,6.0,7.6,83,0.00,,,0.00,meteobridge,2013-09-24 10:10:00,
2013-09-24 04:16:00,62.1,57.6,30.21,SE,135,6.0,6.0,85,0.00,,,0.00,meteobridge,2013-09-24 10:16:00,
2013-09-24 04:22:00,61.5,57.0,30.21,SE,135,6.9,6.9,85,0.00,,,0.00,meteobridge,2013-09-24 10:22:00,
2013-09-24 04:29:00,62.1,57.6,30.21,East,90,10.7,10.7,85,0.00,,,0.00,meteobridge,2013-09-24 10:29:00,
2013-09-24 04:35:00,62.1,57.6,30.21,SE,135,6.0,6.0,85,0.00,,,0.00,meteobridge,2013-09-24 10:35:00,
2013-09-24 04:41:00,62.2,57.7,30.22,SE,135,6.0,6.0,85,0.00,,,0.00,meteobridge,2013-09-24 10:41:00,
2013-09-24 04:48:00,62.2,57.7,30.22,East,90,12.1,12.1,85,0.00,,,0.00,meteobridge,2013-09-24 10:48:00,
2013-09-24 04:54:00,62.4,57.9,30.22,SE,135,8.3,12.1,85,0.00,,,0.00,meteobridge,2013-09-24 10:54:00,
2013-09-24 05:00:00,62.2,57.7,30.22,East,90,3.1,3.1,85,0.00,,,0.00,meteobridge,2013-09-24 11:00:00,
2013-09-24 05:07:00,61.7,57.2,30.22,South,180,3.1,3.8,85,0.00,,,0.00,meteobridge,2013-09-24 11:07:00,
2013-09-24 05:13:00,61.3,56.8,30.22,SE,135,4.5,6.0,85,0.00,,,0.00,meteobridge,2013-09-24 11:13:00,
2013-09-24 05:19:00,61.3,56.5,30.22,SE,135,5.4,6.0,84,0.00,,,0.00,meteobridge,2013-09-24 11:19:00,
2013-09-24 05:26:00,62.4,57.9,30.22,SE,135,8.3,8.3,85,0.00,,,0.00,meteobridge,2013-09-24 11:26:00,
2013-09-24 05:32:00,62.8,57.6,30.22,NE,45,4.5,9.8,83,0.00,,,0.00,meteobridge,2013-09-24 11:32:00,
2013-09-24 05:38:00,61.7,56.5,30.22,East,90,6.0,7.6,83,0.00,,,0.00,meteobridge,2013-09-24 11:38:00,
2013-09-24 05:45:00,62.1,56.8,30.22,SE,135,7.6,7.6,83,0.00,,,0.00,meteobridge,2013-09-24 11:45:00,
2013-09-24 05:51:00,61.7,56.5,30.22,South,180,4.5,5.4,83,0.00,,,0.00,meteobridge,2013-09-24 11:51:00,
2013-09-24 05:57:00,62.6,57.4,30.22,West,270,10.7,10.7,83,0.00,,,0.00,meteobridge,2013-09-24 11:57:00,
2013-09-24 06:04:00,61.2,55.2,30.22,East,90,6.0,6.9,81,0.00,,,0.00,meteobridge,2013-09-24 12:04:00,
2013-09-24 06:10:00,62.4,55.4,30.23,East,90,4.5,5.4,78,0.00,,,0.00,meteobridge,2013-09-24 12:10:00,
2013-09-24 06:16:00,63.5,55.4,30.23,NE,45,6.9,6.9,75,0.00,,,0.00,meteobridge,2013-09-24 12:16:00,
2013-09-24 06:23:00,64.9,57.2,30.23,NW,315,3.1,6.0,76,0.00,,,0.00,meteobridge,2013-09-24 12:23:00,
2013-09-24 06:29:00,66.2,58.1,30.24,North,0,5.4,5.4,75,0.00,,,0.00,meteobridge,2013-09-24 12:29:00,
2013-09-24 06:36:00,69.4,60.4,30.24,South,180,1.6,1.6,73,0.00,,,0.00,meteobridge,2013-09-24 12:36:00,
2013-09-24 06:42:00,67.1,57.4,30.24,SE,135,3.8,3.8,71,0.00,,,0.00,meteobridge,2013-09-24 12:42:00,
2013-09-24 06:48:00,65.7,57.2,30.24,SE,135,0.0,3.1,74,0.00,,,0.00,meteobridge,2013-09-24 12:48:00,
2013-09-24 06:55:00,68.2,59.2,30.24,West,270,2.2,2.2,73,0.00,,,0.00,meteobridge,2013-09-24 12:55:00,
2013-09-24 07:01:00,66.2,57.2,30.24,West,270,3.8,4.5,73,0.00,,,0.00,meteobridge,2013-09-24 13:01:00,
2013-09-24 07:09:00,65.5,57.7,30.24,West,270,3.1,3.1,76,0.00,,,0.00,meteobridge,2013-09-24 13:09:00,
2013-09-24 07:16:00,65.5,58.1,30.24,West,270,0.0,3.8,77,0.00,,,0.00,meteobridge,2013-09-24 13:16:00,
2013-09-24 07:22:00,66.4,58.6,30.24,West,270,2.2,2.2,76,0.00,,,0.00,meteobridge,2013-09-24 13:22:00,
2013-09-24 07:28:00,66.4,58.6,30.25,West,270,0.0,2.2,76,0.00,,,0.00,meteobridge,2013-09-24 13:28:00,
2013-09-24 07:35:00,67.1,59.4,30.25,SW,225,0.0,0.0,76,0.00,,,0.00,meteobridge,2013-09-24 13:35:00,
2013-09-24 07:41:00,67.8,59.5,30.24,East,90,0.7,0.7,75,0.00,,,0.00,meteobridge,2013-09-24 13:41:00,
2013-09-24 07:47:00,68.5,59.5,30.25,West,270,0.0,0.0,73,0.00,,,0.00,meteobridge,2013-09-24 13:47:00,
2013-09-24 07:54:00,68.2,59.2,30.25,West,270,0.0,0.7,73,0.00,,,0.00,meteobridge,2013-09-24 13:54:00,
2013-09-24 08:00:00,68.4,58.6,30.25,East,90,0.0,3.1,71,0.00,,,0.00,meteobridge,2013-09-24 14:00:00,
2013-09-24 08:06:00,68.4,58.6,30.25,NW,315,4.5,4.5,71,0.00,,,0.00,meteobridge,2013-09-24 14:06:00,
2013-09-24 08:13:00,68.0,59.0,30.26,North,0,4.5,5.4,73,0.00,,,0.00,meteobridge,2013-09-24 14:13:00,
2013-09-24 08:19:00,68.7,59.7,30.26,East,90,2.2,2.2,73,0.00,,,0.00,meteobridge,2013-09-24 14:19:00,
2013-09-24 08:25:00,68.2,59.2,30.26,North,0,3.8,3.8,73,0.00,,,0.00,meteobridge,2013-09-24 14:25:00,
2013-09-24 08:32:00,68.9,59.9,30.25,West,270,0.7,1.6,73,0.00,,,0.00,meteobridge,2013-09-24 14:32:00,
2013-09-24 08:38:00,68.2,59.2,30.25,North,0,3.8,3.8,73,0.00,,,0.00,meteobridge,2013-09-24 14:38:00,
2013-09-24 08:45:00,68.2,59.5,30.25,North,0,6.9,6.9,74,0.00,,,0.00,meteobridge,2013-09-24 14:45:00,
2013-09-24 08:51:00,69.1,60.1,30.26,South,180,0.0,0.0,73,0.00,,,0.00,meteobridge,2013-09-24 14:51:00,
2013-09-24 08:57:00,69.3,60.3,30.25,North,0,0.7,3.1,73,0.00,,,0.00,meteobridge,2013-09-24 14:57:00,
2013-09-24 09:04:00,68.5,59.5,30.25,East,90,1.6,5.4,73,0.00,,,0.00,meteobridge,2013-09-24 15:04:00,
2013-09-24 09:10:00,69.3,60.3,30.25,NE,45,3.1,3.8,73,0.00,,,0.00,meteobridge,2013-09-24 15:10:00,
2013-09-24 09:18:00,70.2,60.3,30.25,South,180,0.0,0.0,71,0.00,,,0.00,meteobridge,2013-09-24 15:18:00,
2013-09-24 09:25:00,69.6,59.4,30.25,NE,45,3.1,7.6,70,0.00,,,0.00,meteobridge,2013-09-24 15:25:00,
2013-09-24 09:31:00,71.1,59.9,30.24,NE,45,3.1,3.1,68,0.00,,,0.00,meteobridge,2013-09-24 15:31:00,
2013-09-24 09:37:00,71.4,59.9,30.24,West,270,0.0,2.2,67,0.00,,,0.00,meteobridge,2013-09-24 15:37:00,
2013-09-24 09:44:00,71.8,60.3,30.24,North,0,5.4,5.4,67,0.00,,,0.00,meteobridge,2013-09-24 15:44:00,
2013-09-24 09:50:00,73.2,61.2,30.24,NW,315,0.0,0.0,66,0.00,,,0.00,meteobridge,2013-09-24 15:50:00,
2013-09-24 09:56:00,73.2,60.8,30.24,West,270,3.8,3.8,65,0.00,,,0.00,meteobridge,2013-09-24 15:56:00,
2013-09-24 10:03:00,71.2,59.7,30.24,NW,315,6.0,6.9,67,0.00,,,0.00,meteobridge,2013-09-24 16:03:00,
2013-09-24 10:09:00,71.4,59.9,30.24,South,180,0.0,7.6,67,0.00,,,0.00,meteobridge,2013-09-24 16:09:00,
2013-09-24 10:15:00,71.1,59.9,30.24,NW,315,3.8,4.5,68,0.00,,,0.00,meteobridge,2013-09-24 16:15:00,
2013-09-24 10:22:00,71.4,59.9,30.24,NE,45,3.1,3.1,67,0.00,,,0.00,meteobridge,2013-09-24 16:22:00,
2013-09-24 10:28:00,70.2,59.2,30.24,North,0,7.6,12.1,68,0.00,,,0.00,meteobridge,2013-09-24 16:28:00,
2013-09-24 10:34:00,69.8,59.5,30.24,NE,45,13.0,13.0,70,0.00,,,0.00,meteobridge,2013-09-24 16:34:00,
2013-09-24 10:41:00,69.8,60.4,30.24,NE,45,8.3,9.8,72,0.00,,,0.00,meteobridge,2013-09-24 16:41:00,
2013-09-24 10:47:00,70.3,60.4,30.24,NE,45,9.2,10.7,71,0.00,,,0.00,meteobridge,2013-09-24 16:47:00,
2013-09-24 10:54:00,69.3,60.3,30.23,NE,45,9.2,9.8,73,0.00,,,0.00,meteobridge,2013-09-24 16:54:00,
2013-09-24 11:00:00,70.3,60.4,30.23,East,90,7.6,7.6,71,0.00,,,0.00,meteobridge,2013-09-24 17:00:00,
2013-09-24 11:06:00,71.1,60.4,30.22,North,0,7.6,8.3,69,0.00,,,0.00,meteobridge,2013-09-24 17:06:00,
2013-09-24 11:13:00,73.8,61.7,30.22,NE,45,5.4,8.3,66,0.00,,,0.00,meteobridge,2013-09-24 17:13:00,
2013-09-24 11:19:00,73.4,61.3,30.22,East,90,6.0,7.6,66,0.00,,,0.00,meteobridge,2013-09-24 17:19:00,
2013-09-24 11:27:00,72.3,60.3,30.22,SE,135,4.5,4.5,66,0.00,,,0.00,meteobridge,2013-09-24 17:27:00,
2013-09-24 11:34:00,71.4,60.3,30.22,North,0,2.2,9.2,68,0.00,,,0.00,meteobridge,2013-09-24 17:34:00,
2013-09-24 11:40:00,73.9,61.9,30.21,East,90,2.2,6.0,66,0.00,,,0.00,meteobridge,2013-09-24 17:40:00,
2013-09-24 11:46:00,74.1,60.8,30.21,West,270,5.4,8.3,63,0.00,,,0.00,meteobridge,2013-09-24 17:46:00,
2013-09-24 11:53:00,75.6,62.1,30.21,SE,135,9.8,10.7,63,0.00,,,0.00,meteobridge,2013-09-24 17:53:00,
2013-09-24 11:59:00,77.2,62.2,30.20,SW,225,2.2,5.4,60,0.00,,,0.00,meteobridge,2013-09-24 17:59:00,
2013-09-24 12:05:00,78.3,62.2,30.20,North,0,5.4,9.2,58,0.00,,,0.00,meteobridge,2013-09-24 18:05:00,
2013-09-24 12:12:00,78.8,61.7,30.20,SW,225,2.2,6.9,56,0.00,,,0.00,meteobridge,2013-09-24 18:12:00,
2013-09-24 12:18:00,79.2,62.1,30.20,NW,315,8.3,11.4,56,0.00,,,0.00,meteobridge,2013-09-24 18:18:00,
2013-09-24 12:24:00,77.9,60.4,30.20,NW,315,4.5,6.0,55,0.00,,,0.00,meteobridge,2013-09-24 18:24:00,
2013-09-24 12:31:00,79.5,59.7,30.20,SW,225,1.6,9.8,51,0.00,,,0.00,meteobridge,2013-09-24 18:31:00,
2013-09-24 12:37:00,80.4,61.2,30.19,South,180,8.3,8.3,52,0.00,,,0.00,meteobridge,2013-09-24 18:37:00,
2013-09-24 12:43:00,79.2,58.3,30.19,South,180,7.6,9.2,49,0.00,,,0.00,meteobridge,2013-09-24 18:43:00,
2013-09-24 12:50:00,79.5,59.7,30.19,NE,45,5.4,6.0,51,0.00,,,0.00,meteobridge,2013-09-24 18:50:00,
2013-09-24 12:56:00,77.7,60.3,30.19,SE,135,6.9,10.7,55,0.00,,,0.00,meteobridge,2013-09-24 18:56:00,
2013-09-24 13:03:00,79.2,61.2,30.19,NW,315,3.1,7.6,54,0.00,,,0.00,meteobridge,2013-09-24 19:03:00,
2013-09-24 13:09:00,79.0,59.9,30.19,East,90,12.1,12.1,52,0.00,,,0.00,meteobridge,2013-09-24 19:09:00,
2013-09-24 13:15:00,78.6,60.6,30.19,North,0,9.2,9.2,54,0.00,,,0.00,meteobridge,2013-09-24 19:15:00,
2013-09-24 13:22:00,77.9,60.4,30.19,East,90,6.9,7.6,55,0.00,,,0.00,meteobridge,2013-09-24 19:22:00,
2013-09-24 13:28:00,75.2,59.0,30.18,SE,135,6.0,9.2,57,0.00,,,0.00,meteobridge,2013-09-24 19:28:00,
2013-09-24 13:34:00,75.4,59.0,30.18,East,90,8.3,9.2,57,0.00,,,0.00,meteobridge,2013-09-24 19:34:00,
2013-09-24 13:41:00,76.3,59.9,30.18,NE,45,7.6,9.2,57,0.00,,,0.00,meteobridge,2013-09-24 19:41:00,
2013-09-24 13:47:00,76.1,60.3,30.18,NE,45,5.4,6.9,58,0.00,,,0.00,meteobridge,2013-09-24 19:47:00,
2013-09-24 13:53:00,75.0,60.3,30.18,South,180,4.5,5.4,60,0.00,,,0.00,meteobridge,2013-09-24 19:53:00,
2013-09-24 14:00:00,75.2,61.3,30.18,NE,45,6.9,6.9,62,0.00,,,0.00,meteobridge,2013-09-24 20:00:00,
2013-09-24 14:06:00,75.7,60.8,30.17,NE,45,6.0,7.6,60,0.00,,,0.00,meteobridge,2013-09-24 20:06:00,
2013-09-24 14:12:00,76.1,62.1,30.17,East,90,6.9,6.9,62,0.00,,,0.00,meteobridge,2013-09-24 20:12:00,
2013-09-24 14:19:00,74.1,61.5,30.17,NE,45,9.8,9.8,65,0.00,,,0.00,meteobridge,2013-09-24 20:19:00,
2013-09-24 14:25:00,74.7,62.1,30.17,NE,45,9.8,10.7,65,0.00,,,0.00,meteobridge,2013-09-24 20:25:00,
2013-09-24 14:31:00,74.5,61.9,30.17,East,90,7.6,9.8,65,0.00,,,0.00,meteobridge,2013-09-24 20:31:00,
2013-09-24 14:38:00,75.2,61.7,30.16,NE,45,6.9,15.9,63,0.00,,,0.00,meteobridge,2013-09-24 20:38:00,
2013-09-24 14:44:00,75.2,61.3,30.16,NE,45,7.6,7.6,62,0.00,,,0.00,meteobridge,2013-09-24 20:44:00,
2013-09-24 14:50:00,74.1,61.5,30.16,SE,135,3.8,11.4,65,0.00,,,0.00,meteobridge,2013-09-24 20:50:00,
2013-09-24 14:57:00,75.6,62.1,30.16,NE,45,6.0,6.0,63,0.00,,,0.00,meteobridge,2013-09-24 20:57:00,
2013-09-24 15:03:00,74.5,61.9,30.16,NE,45,6.9,6.9,65,0.00,,,0.00,meteobridge,2013-09-24 21:03:00,
2013-09-24 15:09:00,73.8,62.1,30.16,NE,45,13.0,13.0,67,0.00,,,0.00,meteobridge,2013-09-24 21:09:00,
2013-09-24 15:16:00,72.5,60.4,30.16,NE,45,9.8,9.8,66,0.00,,,0.00,meteobridge,2013-09-24 21:16:00,
2013-09-24 15:22:00,72.9,61.3,30.16,NE,45,6.0,6.0,67,0.00,,,0.00,meteobridge,2013-09-24 21:22:00,
2013-09-24 15:28:00,73.4,61.3,30.16,North,0,3.1,3.1,66,0.00,,,0.00,meteobridge,2013-09-24 21:28:00,
2013-09-24 15:35:00,73.6,61.5,30.16,South,180,0.0,1.6,66,0.00,,,0.00,meteobridge,2013-09-24 21:35:00,
2013-09-24 15:41:00,73.0,60.6,30.16,SE,135,6.9,6.9,65,0.00,,,0.00,meteobridge,2013-09-24 21:41:00,
2013-09-24 15:47:00,73.0,61.0,30.16,West,270,1.6,6.9,66,0.00,,,0.00,meteobridge,2013-09-24 21:47:00,
2013-09-24 15:54:00,74.8,62.2,30.16,West,270,4.5,4.5,65,0.00,,,0.00,meteobridge,2013-09-24 21:54:00,
2013-09-24 16:00:00,73.4,61.7,30.16,NW,315,5.4,6.0,67,0.00,,,0.00,meteobridge,2013-09-24 22:00:00,
2013-09-24 16:06:00,73.0,61.5,30.16,NW,315,6.0,7.6,67,0.00,,,0.00,meteobridge,2013-09-24 22:06:00,
2013-09-24 16:13:00,72.3,61.2,30.16,North,0,2.2,9.8,68,0.00,,,0.00,meteobridge,2013-09-24 22:13:00,
2013-09-24 16:19:00,72.5,61.7,30.16,South,180,0.0,2.2,69,0.00,,,0.00,meteobridge,2013-09-24 22:19:00,
2013-09-24 16:26:00,71.4,61.9,30.16,SW,225,3.8,3.8,72,0.00,,,0.00,meteobridge,2013-09-24 22:26:00,
2013-09-24 16:32:00,70.5,61.5,30.16,North,0,3.1,4.5,73,0.00,,,0.00,meteobridge,2013-09-24 22:32:00,
2013-09-24 16:38:00,70.0,61.7,30.16,West,270,0.7,3.1,75,0.00,,,0.00,meteobridge,2013-09-24 22:38:00,
2013-09-24 16:45:00,69.4,61.9,30.16,North,0,10.7,11.4,77,0.00,,,0.00,meteobridge,2013-09-24 22:45:00,
2013-09-24 16:51:00,69.3,62.1,30.17,NE,45,4.5,8.3,78,0.00,,,0.00,meteobridge,2013-09-24 22:51:00,
2013-09-24 17:04:00,69.4,62.2,30.17,East,90,4.5,4.5,78,0.00,,,0.00,meteobridge,2013-09-24 23:04:00,
2013-09-24 17:10:00,69.8,62.2,30.17,East,90,0.0,0.0,77,0.00,,,0.00,meteobridge,2013-09-24 23:10:00,
2013-09-24 17:16:00,70.0,62.1,30.17,West,270,2.2,3.1,76,0.00,,,0.00,meteobridge,2013-09-24 23:16:00,
2013-09-24 17:23:00,69.3,62.1,30.18,West,270,1.6,3.1,78,0.00,,,0.00,meteobridge,2013-09-24 23:23:00,
2013-09-24 17:31:00,69.3,62.4,30.18,West,270,0.0,4.5,79,0.00,,,0.00,meteobridge,2013-09-24 23:31:00,
2013-09-24 17:37:00,69.3,62.4,30.18,South,180,0.0,0.0,79,0.00,,,0.00,meteobridge,2013-09-24 23:37:00,
2013-09-24 17:44:00,69.3,62.4,30.18,West,270,0.0,0.0,79,0.00,,,0.00,meteobridge,2013-09-24 23:44:00,
2013-09-24 17:52:00,68.9,62.4,30.18,South,180,0.0,0.0,80,0.00,,,0.00,meteobridge,2013-09-24 23:52:00,
2013-09-24 17:59:00,68.5,62.8,30.19,West,270,1.6,2.2,82,0.00,,,0.00,meteobridge,2013-09-24 23:59:00,
2013-09-24 18:05:00,68.4,62.6,30.20,West,270,0.0,2.2,82,0.00,,,0.00,meteobridge,2013-09-25 00:05:00,
2013-09-24 18:11:00,68.2,62.4,30.19,South,180,0.0,0.0,82,0.00,,,0.00,meteobridge,2013-09-25 00:11:00,
2013-09-24 18:18:00,68.2,62.8,30.20,South,180,0.0,0.0,83,0.00,,,0.00,meteobridge,2013-09-25 00:18:00,
2013-09-24 18:24:00,68.4,63.0,30.20,North,0,0.7,2.2,83,0.00,,,0.00,meteobridge,2013-09-25 00:24:00,
2013-09-24 18:30:00,68.2,62.8,30.21,NE,45,1.6,3.1,83,0.00,,,0.00,meteobridge,2013-09-25 00:30:00,
2013-09-24 18:37:00,68.0,62.6,30.21,West,270,2.2,3.8,83,0.00,,,0.00,meteobridge,2013-09-25 00:37:00,
2013-09-24 18:43:00,67.6,62.6,30.21,NW,315,3.1,5.4,84,0.00,,,0.00,meteobridge,2013-09-25 00:43:00,
2013-09-24 18:49:00,67.8,63.1,30.21,SW,225,2.2,2.2,85,0.00,,,0.00,meteobridge,2013-09-25 00:49:00,
2013-09-24 18:56:00,67.6,63.0,30.21,West,270,0.0,0.0,85,0.00,,,0.00,meteobridge,2013-09-25 00:56:00,
2013-09-24 19:02:00,67.6,63.0,30.21,North,0,3.1,3.8,85,0.00,,,0.00,meteobridge,2013-09-25 01:02:00,
2013-09-24 19:08:00,67.8,63.1,30.21,SW,225,0.0,0.0,85,0.00,,,0.00,meteobridge,2013-09-25 01:08:00,
2013-09-24 19:15:00,67.6,63.0,30.21,West,270,0.0,0.0,85,0.00,,,0.00,meteobridge,2013-09-25 01:15:00,
2013-09-24 19:25:00,67.8,63.1,30.22,SW,225,0.0,0.0,85,0.00,,,0.00,meteobridge,2013-09-25 01:25:00,
2013-09-24 19:32:00,67.6,63.0,30.21,North,0,0.0,1.6,85,0.00,,,0.00,meteobridge,2013-09-25 01:32:00,
2013-09-24 19:38:00,67.6,63.0,30.21,NE,45,1.6,1.6,85,0.00,,,0.00,meteobridge,2013-09-25 01:38:00,
2013-09-24 19:44:00,67.5,62.8,30.20,East,90,0.0,0.0,85,0.00,,,0.00,meteobridge,2013-09-25 01:44:00,
2013-09-24 19:51:00,67.3,62.6,30.20,South,180,0.0,0.0,85,0.00,,,0.00,meteobridge,2013-09-25 01:51:00,
2013-09-24 19:57:00,67.1,62.4,30.20,West,270,0.0,0.0,85,0.00,,,0.00,meteobridge,2013-09-25 01:57:00,
2013-09-24 20:03:00,66.7,62.1,30.20,West,270,0.0,0.0,85,0.00,,,0.00,meteobridge,2013-09-25 02:03:00,
2013-09-24 20:10:00,66.7,62.1,30.20,South,180,0.0,0.0,85,0.00,,,0.00,meteobridge,2013-09-25 02:10:00,
2013-09-24 20:16:00,66.6,62.2,30.20,South,180,3.8,3.8,86,0.00,,,0.00,meteobridge,2013-09-25 02:16:00,
2013-09-24 20:22:00,66.4,61.7,30.21,North,0,3.8,5.4,85,0.00,,,0.00,meteobridge,2013-09-25 02:22:00,
2013-09-24 20:29:00,66.2,61.2,30.20,SW,225,5.4,5.4,84,0.00,,,0.00,meteobridge,2013-09-25 02:29:00,
2013-09-24 20:35:00,66.0,61.7,30.20,SW,225,2.2,2.2,86,0.00,,,0.00,meteobridge,2013-09-25 02:35:00,
2013-09-24 20:41:00,65.8,61.5,30.20,West,270,0.0,0.0,86,0.00,,,0.00,meteobridge,2013-09-25 02:41:00,
2013-09-24 20:48:00,65.8,61.2,30.21,West,270,0.0,0.0,85,0.00,,,0.00,meteobridge,2013-09-25 02:48:00,
2013-09-24 20:58:00,65.7,61.0,30.20,NE,45,4.5,4.5,85,0.00,,,0.00,meteobridge,2013-09-25 02:58:00,
2013-09-24 21:05:00,65.3,60.6,30.20,North,0,0.0,1.6,85,0.00,,,0.00,meteobridge,2013-09-25 03:05:00,
2013-09-24 21:11:00,64.9,60.6,30.20,NE,45,0.0,0.0,86,0.00,,,0.00,meteobridge,2013-09-25 03:11:00,
2013-09-24 21:17:00,64.9,60.6,30.20,South,180,0.0,0.0,86,0.00,,,0.00,meteobridge,2013-09-25 03:17:00,
2013-09-24 21:24:00,64.9,60.6,30.20,East,90,2.2,2.2,86,0.00,,,0.00,meteobridge,2013-09-25 03:24:00,
2013-09-24 21:30:00,64.9,61.0,30.20,NE,45,2.2,2.2,87,0.00,,,0.00,meteobridge,2013-09-25 03:30:00,
2013-09-24 21:36:00,64.9,60.6,30.20,East,90,0.0,0.0,86,0.00,,,0.00,meteobridge,2013-09-25 03:36:00,
2013-09-24 21:43:00,65.3,61.0,30.20,South,180,0.0,1.6,86,0.00,,,0.00,meteobridge,2013-09-25 03:43:00,
2013-09-24 21:49:00,65.3,61.0,30.20,South,180,0.0,0.0,86,0.00,,,0.00,meteobridge,2013-09-25 03:49:00,
2013-09-24 21:55:00,64.9,60.6,30.20,East,90,0.0,1.6,86,0.00,,,0.00,meteobridge,2013-09-25 03:55:00,
2013-09-24 22:02:00,64.9,60.6,30.20,East,90,0.0,0.0,86,0.00,,,0.00,meteobridge,2013-09-25 04:02:00,
2013-09-24 22:04:00,64.9,60.6,30.20,East,90,0.0,0.0,86,0.00,,,0.00,meteobridge,2013-09-25 04:04:00,
2013-09-24 22:06:00,65.1,60.8,30.20,SE,135,0.0,0.0,86,0.00,,,0.00,meteobridge,2013-09-25 04:06:00,
2013-09-24 22:12:00,64.9,60.6,30.20,East,90,1.6,3.8,86,0.00,,,0.00,meteobridge,2013-09-25 04:12:00,
2013-09-24 22:14:00,64.9,60.6,30.20,East,90,1.6,2.2,86,0.00,,,0.00,meteobridge,2013-09-25 04:14:00,
2013-09-24 22:21:00,65.3,60.6,30.21,NE,45,3.8,3.8,85,0.00,,,0.00,meteobridge,2013-09-25 04:21:00,
2013-09-24 22:27:00,65.1,60.4,30.21,NE,45,0.0,0.0,85,0.00,,,0.00,meteobridge,2013-09-25 04:27:00,
2013-09-24 22:33:00,64.9,60.3,30.22,NE,45,1.6,3.8,85,0.00,,,0.00,meteobridge,2013-09-25 04:33:00,
2013-09-24 22:40:00,65.5,60.3,30.21,SE,135,0.0,0.0,83,0.00,,,0.00,meteobridge,2013-09-25 04:40:00,
2013-09-24 22:46:00,64.9,59.9,30.21,SE,135,0.0,0.0,84,0.00,,,0.00,meteobridge,2013-09-25 04:46:00,
2013-09-24 22:52:00,65.1,59.9,30.21,South,180,0.0,0.0,83,0.00,,,0.00,meteobridge,2013-09-25 04:52:00,
2013-09-24 22:59:00,64.9,59.7,30.21,South,180,0.0,0.0,83,0.00,,,0.00,meteobridge,2013-09-25 04:59:00,
2013-09-24 23:05:00,64.9,59.9,30.21,South,180,3.1,3.1,84,0.00,,,0.00,meteobridge,2013-09-25 05:05:00,
2013-09-24 23:12:00,65.3,60.6,30.20,South,180,0.0,5.4,85,0.00,,,0.00,meteobridge,2013-09-25 05:12:00,
2013-09-24 23:18:00,65.1,60.4,30.20,West,270,0.0,3.1,85,0.00,,,0.00,meteobridge,2013-09-25 05:18:00,
2013-09-24 23:24:00,65.1,60.4,30.21,South,180,0.0,1.6,85,0.00,,,0.00,meteobridge,2013-09-25 05:24:00,
2013-09-24 23:31:00,64.9,59.9,30.21,South,180,0.0,0.0,84,0.00,,,0.00,meteobridge,2013-09-25 05:31:00,
2013-09-24 23:37:00,64.4,59.5,30.21,East,90,2.2,2.2,84,0.00,,,0.00,meteobridge,2013-09-25 05:37:00,
2013-09-24 23:43:00,64.4,59.5,30.20,NE,45,3.1,3.1,84,0.00,,,0.00,meteobridge,2013-09-25 05:43:00,
2013-09-24 23:50:00,64.4,59.5,30.20,East,90,5.4,5.4,84,0.00,,,0.00,meteobridge,2013-09-25 05:50:00,
2013-09-24 23:56:00,64.2,58.6,30.20,NE,45,3.1,6.0,82,0.00,,,0.00,meteobridge,2013-09-25 05:56:00,